Stockholm/Bromma

Airport
ICAO code: 
ESSB
Summary
ICAO Region: 
EUR
Territory: 
Location: 
Stockholm Municipality,
Elevation: 
47 ft
Coordinates: 
Aerial View: 
59° 21' 15.842" N, 17° 56' 30.12" E
Metar
Observation
ESSB 251250Z 20011KT 9999 SCT048 18/08 Q1006
Station
Stockholm / Bromma
Date/Time
2022-05-25 12:50:00
Wind direction
200°
Wind speed
11 kts
Lowest cloud amount
scattered clouds
Temperature
18°C
Dew point
8°C
Humidity
52%
QNH
1006 hPa
Weather condition
n/a

Description

Stockholm-Bromma Airport is an airport in Stockholm, Sweden. Stockholm-Bromma Airport is located 4 nm west northwest of downtown Stockholm and is the closest to the city.

Climatology

Temperate Marine climate/Oceanic climate (Köppen climate classification Cfb). Moderately cool summer and comparatively warm winter.

Runways

Designator Length Width Surface Rops
12/30 1668 45 ASP Yes/Yes
Airport map: 
Aerial View: 

Accidents and Serious Incidents at or in the vicinity of ESSB

SKYbrary Partners:

Safety knowledge contributed by: